Location: Antichan
(42.9728°N, 0.6667°E)
Time: 12:19:46
(UTC+00:00)

SL-4 R/B - Pass Details

Date: 15 August 2020
Orbit: 428 x 665 km, 51.6° (Epoch: 24 September)

Event Time Altitude Azimuth Distance (km) Brightness Sun altitude
Rises 21:36:10 0° 297° (WNW) 2,640 6.6 -24.3°
Reaches altitude 10° 21:38:48 10° 313° (NW) 1,705 5.6 -24.6°
Maximum altitude 21:41:53 22° 6° (N) 1,078 3.9 -24.9°
Enters shadow 21:42:46 21° 28° (NNE) 1,130 3.8 -25.0°
